Wind_Speed
13 12 12 12 12 12 11 10 8 8 7 7 8 8 8 8 8 8 5 7 6 3 3 4 6 6 7 7 10 11 4 9 12 14 15 9 17 17 18 18 17 19 22 24 23
13 13 12 13 12 12 12 12 10 8 7 7 8 9 9 8 9 13 11 7 5 3 2 5 5 5 11 4 6 14 10 8 6 9 4 7 19 15 17 19 23 26 24 23 20
14 14 13 13 13 12 12 13 11 7 6 7 7 9 8 6 6 11 15 11 8 7 4 7 7 7 6 6 2 7 12 5 13 8 2 12 11 5 11 18 18 25 25 22 20
14 14 14 13 13 13 13 13 11 6 6 6 7 9 9 8 6 3 10 12 9 8 7 7 8 12 8 1 0 5 5 5 8 9 2 15 10 19 20 21 22 24 24 22 20
14 14 14 14 14 13 13 13 10 5 6 5 7 10 10 8 10 6 8 12 10 8 9 9 10 9 8 2 5 8 8 3 7 8 11 9 17 16 21 21 23 24 22 21 20
14 15 15 15 14 14 13 12 7 3 5 4 8 12 9 13 5 8 6 13 11 11 9 9 7 4 8 4 9 6 4 2 5 10 8 16 12 21 18 22 23 21 21 20 20
15 15 15 15 15 14 13 9 4 4 3 4 9 13 9 1 6 7 9 12 12 12 9 8 5 9 3 8 2 6 9 10 11 12 7 19 10 18 20 21 21 19 19 18 19
16 15 15 15 15 14 11 4 3 4 1 6 10 9 6 9 8 11 11 11 12 11 9 9 7 10 9 5 11 12 15 12 11 10 10 8 13 17 19 21 20 18 19 18 18
16 15 15 15 14 14 7 2 2 2 2 7 7 6 8 8 11 11 13 13 13 11 9 7 8 15 9 13 14 11 9 18 11 9 12 10 16 17 19 18 19 18 18 18 18
17 16 15 14 12 11 6 2 1 1 3 7 5 8 11 12 13 14 13 12 15 13 10 12 11 12 12 14 10 11 9 14 14 10 11 10 18 14 18 19 19 19 19 19 19
18 16 15 13 11 8 4 4 3 5 12 13 9 6 9 8 15 14 15 15 17 15 15 15 11 12 16 12 9 11 3 8 10 7 8 11 18 14 16 19 19 20 19 19 19
19 17 15 13 10 6 2 4 4 4 10 21 13 19 5 14 14 15 17 17 18 16 18 9 15 15 6 2 5 8 8 9 7 7 10 7 14 16 16 16 20 20 20 19 19
18 18 15 11 10 2 6 7 4 7 9 18 21 19 16 16 14 20 24 21 19 19 18 15 17 14 6 11 11 12 11 11 8 10 12 4 12 15 16 16 19 19 20 20 20
17 17 16 8 2 5 5 6 6 6 6 15 17 18 24 16 16 20 25 18 12 19 16 15 5 9 12 15 16 16 10 5 7 7 13 13 9 16 18 15 16 21 21 21 21
17 16 12 11 7 3 1 5 6 4 6 19 21 13 25 23 12 22 24 19 15 14 11 16 11 15 16 15 12 6 2 7 11 12 16 11 9 18 18 18 19 21 22 23 22
18 16 14 7 11 8 11 7 4 8 12 9 12 19 22 24 15 25 25 21 15 15 17 15 15 16 17 15 8 4 5 6 9 13 12 10 9 14 17 16 16 27 28 25 25
20 17 16 12 7 5 6 7 8 12 9 10 19 22 25 17 20 22 24 22 17 16 16 18 12 14 15 12 8 9 12 8 7 9 8 10 7 8 4 9 5 7 29 28 27
22 20 19 17 10 9 7 9 15 15 19 4 17 21 26 23 22 21 22 21 23 20 15 16 16 21 13 14 11 13 18 10 4 11 10 6 7 5 8 3 2 7 16 27 27
21 15 15 14 14 13 14 15 21 20 18 9 12 18 24 24 23 22 25 24 25 23 20 17 18 22 18 19 16 14 14 12 6 4 5 9 5 3 7 5 2 8 16 20 26
20 14 19 13 14 16 13 24 21 26 17 15 17 16 22 27 25 25 24 25 25 26 22 8 13 20 14 16 15 11 11 7 6 5 6 7 2 3 6 1 4 6 11 18 25
11 8 7 17 14 21 18 25 29 26 20 15 16 17 20 21 25 22 22 18 25 25 22 20 12 19 16 15 15 13 12 11 14 5 5 6 8 11 7 4 4 1 4 8 12
10 9 10 14 16 21 19 29 30 31 27 18 16 18 17 21 24 25 23 24 22 26 25 22 10 13 20 18 20 19 19 16 10 9 8 8 11 14 10 5 2 4 2 6 14
9 18 8 16 11 18 22 26 30 26 26 21 22 15 16 14 19 23 25 24 20 22 23 19 16 14 16 9 11 14 14 19 15 9 5 7 7 8 9 6 1 6 5 5 8
7 5 18 19 25 23 22 26 28 35 27 26 22 23 19 15 17 16 21 19 26 17 24 25 17 19 16 15 16 19 21 18 13 9 12 13 12 12 10 4 4 2 5 8 10
9 9 8 9 18 21 21 22 26 27 31 24 23 25 22 16 19 19 17 19 13 12 14 18 22 20 21 17 20 20 21 16 17 14 14 2 6 11 11 5 3 2 3 5 6
9 7 12 19 16 16 21 24 26 25 24 21 23 26 22 19 17 15 19 17 18 17 16 21 15 20 21 23 10 12 21 20 19 16 14 16 8 15 12 4 3 2 2 2 6
12 14 13 13 15 13 16 23 24 18 29 32 26 20 22 23 19 18 24 17 15 17 18 19 17 16 20 19 16 18 16 15 14 14 16 12 6 11 8 3 3 5 4 2 3
Wind_Direction
8 8 3 0 356 351 345 338 316 301 271 257 253 250 249 252 257 261 263 246 232 207 208 234 259 270 264 255 253 253 44 54 16 46 99 121 89 86 81 86 75 87 114 127 133
0 1 359 355 353 347 341 337 324 299 269 256 243 241 240 249 261 255 246 229 212 200 172 225 252 264 245 221 260 266 79 69 45 63 87 61 91 130 105 95 97 101 114 125 133
356 353 354 352 349 344 338 336 327 298 266 263 236 226 223 232 272 241 230 230 207 192 209 255 268 273 262 279 289 349 62 31 75 36 43 120 94 124 139 115 123 127 130 133 131
351 350 349 349 345 341 337 335 327 294 270 263 229 208 200 187 236 210 219 209 199 196 245 250 237 246 267 171 128 257 91 36 58 97 128 105 126 66 67 97 128 132 135 136 134
346 346 344 344 342 339 335 334 327 281 277 257 209 189 176 215 251 267 215 195 189 189 215 226 246 257 267 356 240 282 79 350 83 107 82 126 93 85 93 113 128 134 138 141 138
342 342 342 340 339 338 333 333 330 290 285 237 191 177 181 236 193 247 191 184 184 195 216 226 261 311 311 302 291 21 327 302 118 125 163 109 136 111 113 127 133 140 143 145 145
336 338 338 337 338 337 333 331 342 326 291 197 177 178 227 217 182 185 178 182 192 196 215 219 241 255 330 244 330 280 254 197 155 155 170 125 157 106 134 138 142 147 149 148 153
331 333 334 334 337 337 336 330 344 355 337 168 167 176 265 197 185 187 182 188 196 200 216 218 239 266 261 331 260 235 223 165 143 179 135 212 106 131 147 147 149 153 154 157 161
325 327 329 331 336 338 342 330 319 5 93 150 146 187 224 198 196 192 191 191 192 196 208 212 235 251 236 245 224 214 219 128 150 210 147 230 119 140 159 154 154 159 161 164 166
318 322 325 326 331 335 335 321 194 211 150 155 197 220 222 209 188 188 188 193 188 193 205 219 230 242 215 229 221 186 212 141 146 174 204 121 113 155 168 161 164 166 169 170 173
313 315 319 320 322 322 312 308 256 222 210 213 189 235 144 160 175 187 187 184 190 197 215 204 222 219 222 229 1 323 192 135 112 133 244 175 137 155 172 169 168 169 174 180 180
312 311 314 315 315 299 275 244 353 337 280 227 228 219 181 177 181 187 179 182 196 203 215 185 230 225 234 87 248 246 246 164 133 154 251 151 153 150 178 188 170 174 175 181 181
311 310 310 313 316 272 261 259 287 324 258 224 211 211 197 197 207 182 183 200 194 206 202 224 206 232 185 198 223 228 230 166 215 181 244 166 165 161 176 191 171 184 178 182 178
308 309 313 311 312 273 283 214 312 295 269 193 198 215 202 200 220 187 193 201 198 208 204 230 179 180 204 223 222 221 207 337 227 198 220 204 228 178 171 188 189 190 183 189 177
304 304 306 304 272 239 230 291 306 252 252 163 172 204 186 194 156 182 193 205 220 214 204 211 194 204 208 225 211 290 130 222 240 229 256 189 269 172 177 184 189 200 191 191 187
299 299 292 317 280 244 284 280 266 230 236 165 145 180 174 201 180 168 188 211 224 215 212 220 206 199 214 220 210 159 223 227 242 252 225 240 227 149 185 195 201 187 189 198 189
293 291 282 265 197 229 265 238 219 233 219 175 179 190 192 188 182 175 188 197 206 206 203 224 203 215 232 182 195 213 206 202 216 222 249 171 191 274 38 77 353 268 182 187 193
293 289 277 256 240 249 234 223 235 212 225 85 187 192 202 189 193 180 190 198 214 210 190 206 204 207 195 211 186 218 230 251 181 216 184 155 236 235 50 73 188 263 252 183 193
299 293 270 255 233 211 218 220 215 237 211 207 209 195 203 204 198 189 203 207 201 218 235 195 227 187 195 222 211 195 242 278 295 250 297 169 176 228 167 234 242 239 231 205 187
312 299 261 230 203 191 219 231 227 231 258 265 222 218 207 207 197 194 201 207 211 212 234 249 214 177 191 215 215 269 214 216 251 242 234 152 155 95 150 188 91 252 220 231 189
311 262 188 190 192 203 220 224 230 239 229 243 244 229 230 208 204 215 210 211 211 202 215 242 246 179 182 208 205 211 244 239 279 243 298 214 136 104 98 9 332 174 207 234 206
271 237 188 184 204 221 223 224 235 228 239 230 268 265 241 221 216 213 215 219 199 217 202 225 208 239 188 211 228 216 207 228 246 188 257 310 109 123 119 107 352 323 101 259 205
259 246 211 197 224 229 219 229 231 238 233 206 234 242 259 254 236 218 227 220 187 219 207 205 234 218 221 170 215 225 235 222 223 263 208 240 122 128 124 128 96 308 302 183 229
271 240 215 217 240 260 234 217 223 230 240 232 230 235 232 243 245 238 215 213 208 209 220 205 214 238 218 202 202 210 234 235 219 205 233 213 148 179 135 68 98 210 246 285 191
237 244 280 216 222 236 254 236 222 217 228 236 236 229 227 224 232 219 231 202 193 171 200 208 223 224 249 244 207 193 218 208 228 239 256 322 237 92 102 76 52 338 296 255 245
284 278 299 251 296 246 226 245 220 221 212 215 236 220 232 221 238 209 233 198 190 184 218 207 217 230 238 242 233 248 190 209 213 233 241 256 266 101 106 167 217 255 284 252 239
261 282 273 275 238 251 235 223 245 228 224 229 222 233 218 229 229 244 220 247 183 195 212 209 219 214 233 229 237 234 243 234 230 221 242 247 250 118 131 93 345 305 242 234 154
Height
1529 1527 1524 1523 1520 1518 1517 1516 1515 1513 1513 1513 1514 1514 1515 1515 1516 1516 1518 1518 1518 1517 1517 1519 1518 1517 1514 1507 1501 1497 1488 1501 1498 1495 1498 1498 1505 1514 1518 1521 1524 1525 1532 1542 1548
1529 1527 1524 1522 1520 1517 1516 1515 1513 1512 1511 1512 1513 1513 1514 1515 1515 1515 1517 1516 1516 1517 1517 1519 1516 1515 1506 1504 1497 1488 1490 1500 1497 1500 1498 1502 1507 1510 1516 1525 1531 1535 1542 1546 1550
1528 1526 1524 1521 1519 1517 1515 1513 1511 1510 1510 1510 1511 1512 1513 1515 1516 1512 1512 1514 1516 1516 1517 1519 1517 1513 1503 1500 1499 1491 1495 1494 1497 1502 1497 1503 1508 1506 1509 1519 1531 1537 1543 1548 1550
1528 1525 1523 1521 1518 1516 1513 1511 1510 1508 1508 1509 1509 1511 1513 1515 1512 1509 1510 1512 1515 1516 1519 1518 1516 1511 1500 1497 1501 1495 1499 1500 1500 1503 1501 1502 1506 1510 1512 1522 1533 1540 1545 1549 1551
1527 1524 1522 1520 1517 1515 1512 1510 1508 1507 1507 1507 1508 1510 1513 1515 1511 1508 1509 1511 1514 1516 1519 1518 1514 1509 1499 1500 1501 1496 1499 1500 1501 1505 1503 1507 1508 1517 1522 1530 1536 1542 1547 1550 1553
1526 1523 1521 1518 1516 1514 1511 1509 1507 1506 1506 1506 1507 1510 1512 1511 1508 1508 1509 1511 1515 1517 1518 1517 1513 1512 1507 1504 1501 1501 1502 1500 1501 1506 1507 1508 1513 1517 1529 1534 1539 1544 1547 1550 1554
1525 1522 1520 1517 1515 1512 1510 1508 1507 1506 1505 1505 1507 1509 1512 1509 1509 1509 1510 1513 1516 1517 1517 1517 1516 1515 1508 1503 1506 1503 1502 1494 1500 1503 1507 1507 1511 1519 1529 1535 1540 1544 1548 1552 1555
1523 1521 1519 1516 1514 1511 1509 1507 1507 1506 1505 1506 1508 1510 1506 1507 1509 1509 1511 1513 1515 1517 1517 1517 1517 1515 1512 1507 1504 1499 1493 1498 1497 1501 1506 1506 1521 1519 1528 1533 1538 1543 1547 1552 1556
1521 1519 1517 1515 1512 1510 1508 1507 1507 1506 1506 1507 1509 1510 1503 1503 1506 1508 1510 1512 1514 1516 1517 1517 1517 1512 1506 1505 1498 1494 1494 1496 1502 1496 1500 1501 1515 1518 1525 1532 1537 1542 1547 1551 1555
1520 1517 1515 1514 1511 1510 1508 1507 1507 1507 1507 1508 1508 1513 1502 1501 1503 1506 1509 1511 1513 1515 1516 1516 1512 1506 1503 1495 1502 1495 1488 1491 1501 1499 1496 1495 1509 1517 1521 1527 1534 1539 1545 1548 1552
1518 1516 1513 1512 1510 1509 1508 1507 1509 1508 1506 1496 1497 1494 1495 1498 1502 1504 1507 1510 1512 1513 1509 1508 1506 1504 1490 1487 1487 1483 1483 1492 1489 1493 1495 1492 1504 1514 1518 1520 1528 1535 1541 1545 1549
1516 1513 1512 1510 1508 1507 1507 1508 1505 1506 1500 1494 1495 1494 1495 1497 1500 1502 1505 1507 1507 1506 1504 1503 1505 1488 1486 1488 1493 1492 1491 1490 1492 1493 1496 1493 1500 1507 1514 1516 1522 1528 1536 1540 1545
1513 1511 1509 1508 1507 1506 1508 1507 1505 1505 1498 1483 1487 1490 1493 1496 1493 1496 1501 1500 1501 1502 1498 1496 1489 1487 1491 1496 1499 1492 1489 1489 1496 1495 1493 1493 1501 1504 1508 1513 1516 1523 1530 1534 1539
1510 1509 1507 1507 1508 1506 1506 1507 1505 1505 1492 1473 1480 1482 1488 1491 1489 1491 1496 1497 1496 1495 1491 1492 1484 1490 1495 1493 1492 1491 1482 1487 1491 1500 1508 1490 1514 1504 1502 1508 1512 1518 1524 1529 1534
1507 1506 1506 1506 1505 1506 1507 1505 1505 1506 1502 1455 1467 1472 1478 1483 1476 1486 1493 1494 1489 1489 1490 1492 1486 1494 1496 1491 1486 1487 1485 1491 1492 1496 1491 1495 1503 1495 1494 1505 1506 1511 1518 1524 1530
1505 1503 1502 1505 1502 1503 1502 1504 1506 1502 1492 1460 1463 1467 1472 1476 1474 1480 1489 1491 1489 1488 1485 1478 1483 1486 1486 1483 1484 1484 1492 1494 1493 1490 1507 1494 1499 1497 1489 1490 1492 1498 1508 1518 1525
1501 1500 1498 1499 1502 1502 1502 1504 1499 1490 1453 1454 1458 1460 1461 1467 1468 1474 1482 1486 1487 1497 1494 1486 1485 1481 1481 1485 1488 1491 1496 1513 1520 1514 1511 1480 1497 1491 1482 1487 1492 1492 1498 1509 1519
1496 1495 1493 1493 1497 1499 1502 1499 1494 1459 1449 1441 1446 1452 1457 1456 1461 1470 1476 1481 1478 1477 1479 1493 1499 1482 1481 1482 1491 1492 1485 1493 1523 1510 1497 1491 1510 1496 1484 1492 1496 1500 1497 1501 1512
1491 1490 1490 1489 1490 1495 1499 1487 1469 1451 1441 1444 1444 1451 1455 1450 1455 1464 1467 1470 1469 1468 1479 1479 1482 1469 1475 1477 1477 1488 1494 1473 1485 1481 1495 1486 1491 1483 1486 1490 1496 1498 1498 1497 1505
1486 1486 1483 1487 1486 1491 1489 1470 1456 1450 1442 1442 1449 1443 1451 1447 1452 1454 1460 1457 1461 1465 1462 1459 1480 1461 1470 1475 1475 1478 1478 1498 1490 1513 1521 1493 1499 1496 1494 1491 1493 1497 1496 1498 1501
1487 1483 1476 1480 1485 1483 1465 1460 1457 1446 1444 1448 1443 1440 1439 1440 1440 1445 1452 1451 1453 1457 1463 1460 1466 1469 1468 1480 1481 1486 1487 1479 1473 1480 1499 1508 1497 1484 1492 1495 1496 1497 1499 1500 1504
1487 1478 1471 1476 1478 1463 1454 1453 1455 1448 1442 1446 1444 1435 1433 1432 1437 1442 1445 1445 1446 1451 1460 1460 1464 1474 1471 1467 1469 1466 1477 1479 1492 1506 1492 1494 1501 1483 1490 1495 1498 1497 1501 1504 1506
1482 1471 1468 1471 1459 1448 1447 1447 1448 1443 1438 1442 1445 1441 1435 1433 1440 1434 1439 1438 1442 1448 1450 1458 1466 1479 1475 1469 1468 1472 1466 1468 1473 1476 1490 1503 1500 1484 1491 1494 1499 1501 1501 1505 1507
1483 1463 1462 1463 1457 1446 1438 1438 1439 1441 1436 1435 1437 1440 1439 1438 1431 1433 1434 1432 1438 1446 1449 1454 1458 1467 1471 1470 1464 1479 1472 1467 1469 1485 1489 1487 1492 1487 1488 1493 1498 1502 1505 1506 1509
1479 1460 1447 1439 1446 1445 1440 1429 1433 1432 1433 1436 1434 1432 1434 1442 1436 1435 1430 1429 1439 1447 1448 1453 1465 1460 1454 1447 1450 1459 1468 1466 1476 1476 1485 1475 1482 1479 1489 1498 1504 1507 1508 1509 1511
1473 1465 1453 1449 1442 1433 1437 1430 1423 1426 1426 1432 1431 1428 1429 1436 1431 1432 1429 1426 1440 1444 1449 1449 1460 1461 1459 1450 1451 1454 1456 1462 1467 1471 1473 1474 1477 1478 1493 1501 1504 1507 1508 1510 1512
1474 1472 1471 1449 1442 1438 1429 1430 1425 1422 1423 1424 1428 1427 1427 1428 1429 1426 1426 1425 1432 1440 1449 1448 1453 1462 1469 1455 1455 1470 1458 1458 1460 1464 1470 1480 1474 1483 1492 1500 1504 1506 1508 1511 1513